Regional Weather Roundup
Issued by NWS

Home | Current Version | Previous Version | Text Only | Print | Product List | Glossary On
Versions: 1 2 3 4 5 6 7 8 9 10 11 12 13 14 15 16 17 18 19 20 21 22 23 24 25 26 27 28 29 30 31 32 33 34 35 36 37 38 39 40 41 42 43 44 45 46 47 48 49 50
000
ASUS43 KLOT 202110
RWRIL

ILLINOIS REGIONAL WEATHER ROUNDUP
NATIONAL WEATHER SERVICE CHICAGO/ROMEOVILLE IL
400 PM CDT SAT SEP 20 2014

NOTE: "FAIR" INDICATES FEW OR NO CLOUDS BELOW 12,000 FEET WITH NO
SIGNIFICANT WEATHER AND/OR OBSTRUCTIONS TO VISIBILITY.

* THESE STATIONS ARE NOT UNDER NWS QUALITY CONTROL. THEY ALSO MAY NOT
  REPORT WEATHER SUCH AS PRECIPITATION OR FOG.

ILZ001-002-007-009-015-016-024-202200-
NORTHWEST ILLINOIS

CITY           SKY/WX    TMP DP  RH WIND       PRES   REMARKS
MOLINE         PTSUNNY   79  68  69 W9        29.82F HX  81
STERLING*      CLOUDY    79  66  65 W6        29.80F HX  81
SAVANNA*       MOSUNNY   75  67  76 SW7       29.79F
$$

ILZ003-004-008-010-011-017-018-202200-
NORTH CENTRAL ILLINOIS

CITY           SKY/WX    TMP DP  RH WIND       PRES   REMARKS
ROCKFORD       CLOUDY    73  66  78 SW13      29.79F
FREEPORT*      PTSUNNY   73  66  79 SW12G17   29.81F
ROCHELLE*      CLOUDY    72  64  77 SW10      29.81F
DE KALB*       CLOUDY    69  63  83 SW10      29.80F
PERU*          PTSUNNY   72  68  89 CALM      29.81F
$$

ILZ005-006-012>014-019>023-202200-
NORTHEAST ILLINOIS

CITY           SKY/WX    TMP DP  RH WIND       PRES   REMARKS
CHICAGO-OHARE  LGT RAIN  73  67  81 W8G22     29.80F
CHICAGO-MIDWAY LGT RAIN  75  68  78 SW9       29.82R
AURORA         PTSUNNY   73  67  81 SW8       29.81F
LANSING*       CLOUDY    67  64  91 SW6       29.84F
JOLIET*        PTSUNNY   74  66  78 W10       29.83F
WAUKEGAN       CLOUDY    68  65  90 SW10      29.78F
DUPAGE AIRPORT PTSUNNY   74  66  76 SW15      29.80F
KANKAKEE*      PTSUNNY   78  72  81 W8        29.83F HX  80
WHEELING       CLOUDY    74  67  78 SW9       29.81S
MORRIS*        LGT RAIN  72  70  93 W10       29.83F
ROMEOVILLE*    LGT RAIN  72  66  83 W13G20    29.83F
NORTHERLY ISL    N/A     74  64  71 S7          N/A
$$

LMZ740>746-202200-
SOUTHERN LAKE MICHIGAN

STATION/POSITION SKY/WX   TEMP    WIND        PRES    VSBY  WAVE
                          AIR SEA DIR/SP/G                  HT/PER
                          (F)     (DEG/KT/KT) (MB)    (MI)  (FT/S)
SOUTHERN BUOY              66     220/ 12/ 14 1009.0R
WAUKEGAN HARBOR                   260/ 11/ 22   N/A
HARRISON CRIB              74     250/ 16/ 19   N/A
BURNHAM HARBOR             74     290/  4/ 10   N/A
CALUMET HARBOR             74     230/  4/  8 1009.0R
MICHIGAN CITY              70     210/ 12/ 12   N/A
MICHIGAN CITY 6N           68 65  220/  8/ 10   N/A           2/ 3
ST. JOSEPH                 68 65  210/  8/ 10   N/A           2/ 4
$$

ILZ025>027-034>036-040-047-049-050-058-095>099-202200-
WEST-CENTRAL ILLINOIS

CITY           SKY/WX    TMP DP  RH WIND       PRES   REMARKS
QUINCY         PTSUNNY   82  70  66 W12       29.91F HX  86
GALESBURG*     CLOUDY    76  70  81 S7        29.85F
MACOMB*        PTSUNNY   78  67  67 W12G21    29.90F HX  80
JACKSONVILLE*  PTSUNNY   84  71  63 W12       29.90F HX  89
PITTSFIELD*    PTSUNNY   84  70  62 W10       29.91F HX  88
$$

ILZ028>032-037-038-041>044-048-051>054-059>061-202200-
CENTRAL ILLINOIS

CITY           SKY/WX    TMP DP  RH WIND       PRES   REMARKS
PONTIAC        MOSUNNY   82  68  61 W15       29.83F HX  85
DECATUR        HVY RAIN  80  69  69 SW16G26   29.89F HX  83
PEORIA         PTSUNNY   79  68  69 SW13      29.86F HX  81
LACON*         PTSUNNY   78  67  67 W5        29.82F HX  80
LINCOLN*       LGT RAIN  81  68  64 W8        29.85F HX  84
SPRINGFIELD    CLOUDY    82  70  66 W10       29.89F HX  86
TAYLORVILLE    PTSUNNY   82  68  61 W15G22    29.90F HX  85
$$

ILZ033-039-045-046-055>057-062-063-202200-
EAST-CENTRAL ILLINOIS

CITY           SKY/WX    TMP DP  RH WIND       PRES   REMARKS
CHAMPAIGN      PTSUNNY   83  67  58 SW17G28   29.86F HX  85
DANVILLE*      PTSUNNY   83  66  56 SW20G25   29.83F HX  85
RANTOUL*       PTSUNNY   82  65  56 SW16G24   29.86F HX  84
MATTOON        PTSUNNY   81  67  62 W10G22    29.91F HX  83
PARIS*         PTSUNNY   83  66  56 SW15G21   29.90F HX  85
$$

ILZ079-100>102-202200-
SOUTHWEST ILLINOIS

CITY           SKY/WX    TMP DP  RH WIND       PRES   REMARKS
ALTON          PTSUNNY   84  68  58 SW10      29.93F HX  87
BELLEVILLE     CLOUDY    85  69  60 VRB5      29.92F HX  88
CAHOKIA*       CLOUDY    87  67  51 VRB5      29.93S HX  90
SPARTA*        PTSUNNY   85  68  57 SW12G17   29.95F HX  88
$$

ILZ064>066-069>071-074>076-080>082-084>086-088>090-092>094-202200-
SOUTH-CENTRAL ILLINOIS

CITY           SKY/WX    TMP DP  RH WIND       PRES   REMARKS
CARBONDALE     MOSUNNY   85  68  56 SW10G21   29.96F HX  88
CAIRO*         PTSUNNY   87  68  53 SW3       29.98F HX  90
EFFINGHAM*     PTSUNNY   83  65  55 SW10      29.92F HX  84
MARION         PTSUNNY   86  68  54 SW15      29.97F HX  89
MT. VERNON     MOSUNNY   84  70  61 S12G17    29.95F HX  88
CENTRALIA*     PTSUNNY   83  66  57 SW12      29.94F HX  85
SALEM*         PTSUNNY   85  72  65 SW13      29.93F HX  90
METROPOLIS*    PTSUNNY   84  69  59 SW8       29.98F HX  88
$$

ILZ067-068-072-073-078-083-087-091-202200-
SOUTHEAST ILLINOIS

CITY           SKY/WX    TMP DP  RH WIND       PRES   REMARKS
LAWRENCEVILLE  MOSUNNY   85  66  53 SW18G24   29.92F HX  87
FLORA*         MOSUNNY   83  66  56 SW12      29.94F HX  85
FAIRFIELD*     MOSUNNY  N/A N/A N/A S9G16     29.94F
HARRISBURG*    MOSUNNY   85  66  54 SW9       29.97F HX  87
ROBINSON*      MOSUNNY   85  67  55 SW12G21   29.93F HX  88
CARMI*         MOSUNNY   88  68  51 SW7       29.96S HX  91
$$

ABBREVIATIONS USED IN REMARKS
   TC - TEMPERATURE IN CELSIUS
  WCI - WIND CHILL INDEX
   HX - HEAT INDEX
  VSB - VISIBILITY
$$




USA.gov is the U.S. government's official web portal to all federal, state and local government web resources and services.